Regional Weather Roundup
Issued by NWS Newport/Morehead, NC

Current Version | Previous Version | Text Only | Print | Product List | Glossary On
Versions: 1 2 3 4 5 6 7 8 9 10 11 12 13 14 15 16 17 18 19 20 21 22 23 24 25 26 27 28 29 30 31 32 33 34 35 36 37 38 39 40 41 42 43 44 45 46 47 48 49 50
000 ASUS42 KMHX 021113 RWRMHX WEATHER ROUNDUP FOR EASTERN NORTH CAROLINA NATIONAL WEATHER SERVICE NEWPORT/MOREHEAD CITY NC 700 AM EDT MON MAY 02 2016 NOTE: "FAIR" INDICATES FEW OR NO CLOUDS BELOW 12,000 FEET WITH NO SIGNIFICANT WEATHER AND/OR OBSTRUCTIONS TO VISIBILITY NCZ015>017-031-032-045>047-102-103-021200- NORTH COAST CITY SKY/WX TMP DP RH WIND PRES REMARKS EDENTON CLOUDY 69 69 100 SW9 30.01R ELIZABETH CITY CLOUDY 68 66 93 SW10 29.99R KITTY HAWK CLOUDY 69 68 97 SW6 29.99R MANTEO NOT AVBL $$ NCZ045>047-081-094-103-104-021200- CENTRAL COAST CITY SKY/WX TMP DP RH WIND PRES REMARKS FRISCO CLOUDY 68 67 96 SW7 30.03S SWANQUARTER NOT AVBL $$ NCZ095-097-098-100-101-021200- SOUTHERN COAST CITY SKY/WX TMP DP RH WIND PRES REMARKS BEAUFORT PTCLDY 69 68 96 SW9 30.04R CEDAR ISLAND NOT AVBL JACKSONVILLE PTCLDY 69 67 93 S7 30.02R PINEY ISLAND NOT AVBL WILMINGTON MOCLDY 70 69 97 S7 30.04R $$ NCZ011>013-027>030-043-044-078>080-089-090>093-098-021200- COASTAL PLAIN CITY SKY/WX TMP DP RH WIND PRES REMARKS AHOSKIE CLOUDY 66 65 96 CALM 29.99R CLINTON CLOUDY 69 69 100 SW5 30.03R FOG ELIZABETHTOWN CLOUDY 69 69 100 S7 30.02R FOG GOLDSBORO NOT AVBL GREENVILLE CLOUDY 70 68 94 SW6 30.02R FOG HAVELOCK CLOUDY 71 69 93 S10 30.03S FOG KENANSVILLE CLOUDY 68 67 98 SW5 30.03R FOG KINSTON CLOUDY 70 68 94 SW10G16 30.02R FOG NEW BERN CLOUDY 68 66 93 S7 30.03R RICHLANDS CLOUDY 68 68 100 SW9 30.03R FOG ROCKY MOUNT CLOUDY 68 66 93 S7 30.00R WASHINGTON CLOUDY 68 67 96 S6 30.00R WHITEVILLE FOG 69 68 96 S3 30.02S VSB 1/4 $$ AMZ130-135-150-152-154-156-158-170-250-252-270-ANZ085-086-088-633-658-670-021200- MARINE OBSERVATIONS STATION/POSITION TIME TEMP WIND PRES WAVE SWELL AIR SEA DIR/SP/G HT/PER HT/PER (UTC) (F) (DEG/KT/KT) (MB) (FT/S) (FT/S) CHESAPEAKE LIGHT 1000 63 200/ 15/ 15 1015.0 64 E VA BEACH 1050 58 53 210/ 10/ 12 1015.3 5/11 5/11 DUCK 1000 69 66 210/ 10/ 13 1014.8 2 E DUCK 1011 58 N/A 3/ 5 2/11 OREGON INLET 1000 68 67 200/ 9/ 10 1015.8 13E OREGON INLT 1100 59 N/A 5/11 5/11 HATTERAS CG 1000 69 68 200/ 4/ 7 1016.5 DIAMOND BUOY 1050 74 73 220/ 12/ 16 1017.0 4/ 5 3/10 CAPE LOOKOUT 1100 70 220/ 8/ 12 1016.9 BEAUFORT LAB 1000 69 67 220/ 3/ 6 1015.9 30 SE NEW RVR IN 1025 69 N/A 4/10 2/11 27 SE WRIGHTSVLE 1008 73 72 210/ 12/ 16 1016.8 5 SE WRIGHTSVLE 1008 70 68 220/ 6/ 10 1017.4 225 S CAPE HAT 1050 73 74 150/ 10/ 12 1019.7 3/10 3/10 41 SE CHARLESTON 1050 75 73 200/ 6/ 8 1017.2 3/ 5 3/ 5 $$

USA.gov is the U.S. government's official web portal to all federal, state and local government web resources and services.